^^
Grace C. Lehan Memorial Weather Station Historical Data
Daily Summary for September 25, 2021 Units:  Metric    English   Both
Daily Weekly Monthly Yearly
  High: Low: Average:
Temperature: 23.9 °C 11.3 °C 17.5 °C
Dew Point: 16.1 °C 10.5 °C 13.7 °C
Humidity: 96% 52% 80%
Wind Speed: 2.6km/h 0km/h 0.2km/h
Wind Gust: 9.7km/h - -
Wind- - SE
Pressure: 1017.5 hPa 1010.4 hPa -
Precipitation: 0 mm    
 
 
Tabular Data for September 25, 2021
Time Temperature Dew Point Pressure Wind Wind Speed Wind Gust Humidity Rainfall Rate (Hourly) solar
00:00 14.8 °C 13.2 °C 1016.1 hPa Calm     90% 0 mm 0 W/m2
00:09 14.9 °C 13.2 °C 1016.1 hPa Calm     90% 0 mm 0 W/m2
00:14 14.8 °C 13.2 °C 1016.5 hPa Calm     90% 0 mm 0 W/m2
00:19 14.8 °C 13.2 °C 1016.5 hPa Calm     90% 0 mm 0 W/m2
00:24 14.8 °C 13.1 °C 1016.8 hPa Calm     89.1% 0 mm 0 W/m2
00:29 14.8 °C 13.1 °C 1016.8 hPa Calm     89% 0 mm 0 W/m2
00:34 14.8 °C 13 °C 1016.8 hPa Calm     89% 0 mm 0 W/m2
00:39 14.8 °C 13 °C 1016.8 hPa Calm   1.6 km/h 89.2% 0 mm 0 W/m2
00:44 14.7 °C 13.1 °C 1016.8 hPa Calm   1.6 km/h 90% 0 mm 0 W/m2
00:49 14.7 °C 13 °C 1017.2 hPa Calm   1.6 km/h 90% 0 mm 0 W/m2
00:54 14.6 °C 12.9 °C 1017.2 hPa Calm   1.6 km/h 90% 0 mm 0 W/m2
00:59 14.6 °C 13.1 °C 1017.2 hPa Calm   1.6 km/h 91% 0 mm 0 W/m2
01:04 14.6 °C 13.1 °C 1017.2 hPa Calm   1.6 km/h 91% 0 mm 0 W/m2
01:09 14.5 °C 13.1 °C 1017.2 hPa Calm     91% 0 mm 0 W/m2
01:14 14.4 °C 13 °C 1016.8 hPa Calm     91% 0 mm 0 W/m2
01:19 14.4 °C 13 °C 1016.8 hPa Calm     91% 0 mm 0 W/m2
01:24 14.4 °C 12.9 °C 1016.8 hPa Calm     91% 0 mm 0 W/m2
01:29 14.3 °C 12.8 °C 1016.8 hPa Calm     91% 0 mm 0 W/m2
01:34 14.2 °C 12.8 °C 1016.8 hPa Calm     91.5% 0 mm 0 W/m2
01:39 14.1 °C 12.8 °C 1016.8 hPa Calm     91.8% 0 mm 0 W/m2
01:44 14 °C 12.7 °C 1016.8 hPa Calm   1.6 km/h 91.8% 0 mm 0 W/m2
01:49 13.9 °C 12.7 °C 1016.8 hPa Calm   1.6 km/h 92% 0 mm 0 W/m2
01:54 13.9 °C 12.6 °C 1016.8 hPa Calm   1.6 km/h 92% 0 mm 0 W/m2
01:59 13.8 °C 12.6 °C 1016.8 hPa Calm   1.6 km/h 92% 0 mm 0 W/m2
02:04 13.8 °C 12.5 °C 1016.8 hPa Calm   1.6 km/h 92% 0 mm 0 W/m2
02:09 13.7 °C 12.4 °C 1016.8 hPa Calm     92% 0 mm 0 W/m2
02:14 13.7 °C 12.6 °C 1016.8 hPa Calm     93% 0 mm 0 W/m2
02:19 13.6 °C 12.4 °C 1016.8 hPa Calm     93% 0 mm 0 W/m2
02:24 13.5 °C 12.3 °C 1016.8 hPa Calm     92.4% 0 mm 0 W/m2
02:29 13.4 °C 12.3 °C 1016.8 hPa Calm     92.8% 0 mm 0 W/m2
02:34 13.3 °C 12.2 °C 1016.8 hPa Calm     93% 0 mm 0 W/m2
02:39 13.3 °C 12.2 °C 1016.8 hPa Calm     93% 0 mm 0 W/m2
02:44 13.2 °C 12.1 °C 1016.8 hPa Calm     93% 0 mm 0 W/m2
02:49 13.2 °C 12.1 °C 1016.8 hPa Calm     93% 0 mm 0 W/m2
02:54 13.2 °C 12.1 °C 1016.8 hPa Calm     93% 0 mm 0 W/m2
02:59 13.1 °C 12 °C 1016.8 hPa Calm     93% 0 mm 0 W/m2
03:04 13.1 °C 11.9 °C 1016.5 hPa Calm     93% 0 mm 0 W/m2
03:09 12.9 °C 11.8 °C 1016.5 hPa Calm     93% 0 mm 0 W/m2
03:14 12.9 °C 11.9 °C 1016.5 hPa Calm     93.2% 0 mm 0 W/m2
03:19 12.9 °C 11.9 °C 1016.8 hPa Calm     93.8% 0 mm 0 W/m2
03:24 12.9 °C 11.9 °C 1016.8 hPa Calm     94% 0 mm 0 W/m2
03:29 12.8 °C 11.9 °C 1016.5 hPa Calm     94% 0 mm 0 W/m2
03:34 12.8 °C 11.8 °C 1016.5 hPa Calm     94% 0 mm 0 W/m2
03:39 12.7 °C 11.8 °C 1016.5 hPa Calm     94% 0 mm 0 W/m2
03:44 12.7 °C 11.8 °C 1016.5 hPa Calm     94% 0 mm 0 W/m2
03:49 12.7 °C 11.7 °C 1016.5 hPa Calm     94% 0 mm 0 W/m2
03:54 12.7 °C 11.7 °C 1016.5 hPa Calm     94% 0 mm 0 W/m2
03:59 12.6 °C 11.7 °C 1016.8 hPa Calm     94% 0 mm 0 W/m2
04:00 12.6 °C 11.7 °C 1016.5 hPa Calm     94% 0 mm 0 W/m2
04:09 12.5 °C 11.6 °C 1016.8 hPa Calm     94% 0 mm 0 W/m2
04:14 12.5 °C 11.6 °C 1016.8 hPa Calm     94% 0 mm 0 W/m2
04:19 12.4 °C 11.5 °C 1016.8 hPa Calm     94% 0 mm 0 W/m2
04:24 12.4 °C 11.4 °C 1016.8 hPa Calm     94% 0 mm 0 W/m2
04:29 12.4 °C 11.4 °C 1016.8 hPa Calm     94% 0 mm 0 W/m2
04:34 12.3 °C 11.4 °C 1016.8 hPa Calm     94% 0 mm 0 W/m2
04:39 12.3 °C 11.4 °C 1016.8 hPa Calm     94% 0 mm 0 W/m2
04:44 12.3 °C 11.3 °C 1016.8 hPa Calm     94% 0 mm 0 W/m2
04:49 12.2 °C 11.3 °C 1016.8 hPa Calm     94% 0 mm 0 W/m2
04:54 12.2 °C 11.2 °C 1016.8 hPa Calm     94% 0 mm 0 W/m2
04:59 12.1 °C 11.2 °C 1016.8 hPa Calm     94% 0 mm 0 W/m2
05:04 12.1 °C 11.2 °C 1016.8 hPa Calm     94% 0 mm 0 W/m2
05:09 12 °C 11.1 °C 1016.8 hPa Calm     94.2% 0 mm 0 W/m2
05:14 12 °C 11.1 °C 1016.8 hPa Calm     94% 0 mm 0 W/m2
05:19 11.9 °C 11 °C 1016.8 hPa Calm     94% 0 mm 0 W/m2
05:24 11.9 °C 11 °C 1016.8 hPa Calm     94% 0 mm 0 W/m2
05:29 11.9 °C 11.1 °C 1016.8 hPa Calm     95% 0 mm 0 W/m2
05:34 11.8 °C 11.1 °C 1016.8 hPa Calm     95% 0 mm 0 W/m2
05:39 11.8 °C 11 °C 1016.8 hPa Calm     95% 0 mm 0 W/m2
05:44 11.8 °C 11 °C 1016.8 hPa Calm     95% 0 mm 0 W/m2
05:49 11.7 °C 10.9 °C 1016.8 hPa Calm     94.9% 0 mm 0 W/m2
05:54 11.6 °C 10.7 °C 1016.8 hPa Calm     94% 0 mm 0 W/m2
05:59 11.6 °C 10.6 °C 1016.8 hPa Calm     94% 0 mm 0 W/m2
06:04 11.5 °C 10.7 °C 1016.8 hPa Calm     95% 0 mm 0 W/m2
06:09 11.4 °C 10.7 °C 1016.8 hPa Calm     95% 0 mm 0 W/m2
06:14 11.4 °C 10.7 °C 1017.2 hPa Calm     95% 0 mm 0 W/m2
06:19 11.4 °C 10.6 °C 1017.2 hPa Calm     95% 0 mm 0 W/m2
06:24 11.3 °C 10.6 °C 1017.2 hPa Calm     95% 0 mm 0 W/m2
06:29 11.3 °C 10.6 °C 1017.2 hPa Calm     95% 0 mm 0 W/m2
06:34 11.3 °C 10.6 °C 1017.2 hPa Calm     95% 0 mm 0 W/m2
06:39 11.3 °C 10.6 °C 1016.8 hPa Calm     95% 0 mm 0 W/m2
06:44 11.3 °C 10.5 °C 1016.8 hPa Calm     95% 0 mm 0 W/m2
06:49 11.3 °C 10.5 °C 1016.8 hPa Calm     95% 0 mm 0 W/m2
06:54 11.3 °C 10.5 °C 1016.8 hPa West 0.2 km/h 3.2 km/h 95% 0 mm 5 W/m2
06:59 11.3 °C 10.5 °C 1016.8 hPa Calm   3.2 km/h 95% 0 mm 7 W/m2
07:04 11.3 °C 10.5 °C 1017.2 hPa Calm   3.2 km/h 95% 0 mm 9 W/m2
07:09 11.3 °C 10.5 °C 1017.2 hPa Calm     95% 0 mm 9 W/m2
07:14 11.3 °C 10.5 °C 1017.2 hPa Calm     95% 0 mm 11 W/m2
07:19 11.4 °C 10.6 °C 1017.2 hPa Calm     95% 0 mm 11 W/m2
07:24 11.4 °C 10.7 °C 1017.2 hPa Calm     95.1% 0 mm 12 W/m2
07:29 11.6 °C 10.9 °C 1017.2 hPa Calm     96% 0 mm 14 W/m2
07:34 11.6 °C 10.9 °C 1017.2 hPa Calm     96% 0 mm 18 W/m2
07:39 11.7 °C 11.1 °C 1017.2 hPa Calm     96% 0 mm 18 W/m2
07:44 11.7 °C 11.1 °C 1017.5 hPa Calm     96% 0 mm 21 W/m2
07:49 11.8 °C 11.2 °C 1017.5 hPa Calm     96% 0 mm 16 W/m2
07:54 11.9 °C 11.3 °C 1017.2 hPa Calm     96% 0 mm 16 W/m2
07:59 12.1 °C 11.4 °C 1017.2 hPa Calm     96% 0 mm 18 W/m2
08:09 12.3 °C 11.7 °C 1017.2 hPa Calm     96% 0 mm 37 W/m2
08:14 12.4 °C 11.8 °C 1017.2 hPa West 0.3 km/h 3.2 km/h 96% 0 mm 21 W/m2
08:19 12.6 °C 11.9 °C 1017.2 hPa Calm   3.2 km/h 96% 0 mm 23 W/m2
08:24 12.7 °C 12.1 °C 1017.2 hPa Calm   3.2 km/h 96% 0 mm 25 W/m2
08:29 12.8 °C 12.2 °C 1017.2 hPa West 0.2 km/h 3.2 km/h 96% 0 mm 28 W/m2
08:34 12.9 °C 12.3 °C 1017.2 hPa West 0.2 km/h 3.2 km/h 96% 0 mm 37 W/m2
08:39 13.1 °C 12.5 °C 1017.2 hPa Calm   3.2 km/h 96% 0 mm 39 W/m2
08:44 13.3 °C 12.6 °C 1017.2 hPa Calm   3.2 km/h 95.4% 0 mm 47 W/m2
08:49 13.4 °C 12.7 °C 1017.2 hPa Calm   3.2 km/h 95% 0 mm 51 W/m2
08:54 13.7 °C 12.8 °C 1017.2 hPa NNE 1 km/h 8 km/h 94.5% 0 mm 56 W/m2
08:59 13.9 °C 13 °C 1017.2 hPa ENE 0.3 km/h 8 km/h 94% 0 mm 350 W/m2
09:04 14.2 °C 13.1 °C 1016.8 hPa Calm   8 km/h 93% 0 mm 394 W/m2
09:09 14.7 °C 13.6 °C 1016.8 hPa NE 0.2 km/h 3.2 km/h 93% 0 mm 413 W/m2
09:14 15.2 °C 13.9 °C 1016.8 hPa NE 1.8 km/h 6.4 km/h 92% 0 mm 438 W/m2
09:19 15.8 °C 14 °C 1016.8 hPa Calm   6.4 km/h 88.9% 0 mm 459 W/m2
09:24 16.4 °C 14.3 °C 1016.8 hPa NE 0.2 km/h 6.4 km/h 87.5% 0 mm 480 W/m2
09:29 17.1 °C 14.8 °C 1016.8 hPa Calm   6.4 km/h 86.5% 0 mm 504 W/m2
09:34 17.7 °C 14.9 °C 1016.8 hPa ENE 2.4 km/h 8 km/h 83.5% 0 mm 524 W/m2
09:39 18.1 °C 14.6 °C 1016.8 hPa Calm   8 km/h 80.1% 0 mm 540 W/m2
09:44 18.4 °C 15.1 °C 1016.8 hPa ENE 0.2 km/h 8 km/h 80.7% 0 mm 555 W/m2
09:49 18.9 °C 15.2 °C 1016.8 hPa ENE 0.5 km/h 8 km/h 78.6% 0 mm 570 W/m2
09:54 19.4 °C 15.1 °C 1016.8 hPa ENE 0.2 km/h 8 km/h 76.1% 0 mm 578 W/m2
09:59 19.8 °C 15.5 °C 1016.5 hPa ENE 0.8 km/h 8 km/h 76.2% 0 mm 592 W/m2
10:04 20.1 °C 15.6 °C 1016.5 hPa Calm   8 km/h 75.1% 0 mm 605 W/m2
10:09 20.4 °C 15.2 °C 1016.5 hPa Calm     72.3% 0 mm 613 W/m2
10:14 20.4 °C 14.8 °C 1016.5 hPa NE 0.6 km/h 4.8 km/h 70% 0 mm 626 W/m2
10:19 20.4 °C 14.8 °C 1016.5 hPa NE 1.1 km/h 6.4 km/h 70.3% 0 mm 635 W/m2
10:24 20.6 °C 15.2 °C 1016.5 hPa NE 0.2 km/h 6.4 km/h 71.3% 0 mm 647 W/m2
10:29 20.8 °C 15.5 °C 1016.5 hPa North 1 km/h 8 km/h 71.4% 0 mm 656 W/m2
10:34 21.2 °C 15.7 °C 1016.5 hPa NNW 0.3 km/h 8 km/h 70.8% 0 mm 666 W/m2
10:39 21.5 °C 15.7 °C 1016.5 hPa NNE 0.5 km/h 4.8 km/h 69.3% 0 mm 679 W/m2
10:44 21.7 °C 15.4 °C 1016.5 hPa Calm   4.8 km/h 67.7% 0 mm 687 W/m2
10:49 21.7 °C 15.4 °C 1016.5 hPa East 0.5 km/h 4.8 km/h 67.3% 0 mm 698 W/m2
10:54 21.7 °C 15.3 °C 1016.5 hPa North 1.1 km/h 6.4 km/h 66.8% 0 mm 707 W/m2
10:59 21.9 °C 15.5 °C 1016.5 hPa NNW 0.5 km/h 6.4 km/h 67.2% 0 mm 717 W/m2
11:04 22.1 °C 15.6 °C 1016.1 hPa NNW 0.2 km/h 6.4 km/h 66.5% 0 mm 724 W/m2
11:09 22.3 °C 15.2 °C 1016.1 hPa East 1.3 km/h 8 km/h 64.5% 0 mm 731 W/m2
11:14 22.3 °C 14.7 °C 1016.1 hPa Calm   8 km/h 62.3% 0 mm 740 W/m2
11:19 22.3 °C 15.1 °C 1016.1 hPa ENE 1.8 km/h 9.7 km/h 63.3% 0 mm 747 W/m2
11:24 22.4 °C 15.1 °C 1016.1 hPa Calm   9.7 km/h 63.3% 0 mm 754 W/m2
11:29 22.6 °C 15.6 °C 1016.1 hPa Calm   9.7 km/h 64.8% 0 mm 756 W/m2
11:34 22.8 °C 16.1 °C 1015.8 hPa North 1 km/h 9.7 km/h 66% 0 mm 654 W/m2
11:39 23 °C 15.8 °C 1015.8 hPa North 0.5 km/h 4.8 km/h 63.9% 0 mm 555 W/m2
11:44 23.1 °C 15.8 °C 1015.8 hPa North 0.2 km/h 4.8 km/h 63.6% 0 mm 281 W/m2
11:49 23 °C 15.3 °C 1015.8 hPa North 1.8 km/h 9.7 km/h 61.7% 0 mm 158 W/m2
11:54 22.7 °C 14.9 °C 1015.8 hPa NW 1.3 km/h 9.7 km/h 61.3% 0 mm 142 W/m2
11:59 22.6 °C 15.1 °C 1015.5 hPa NE 0.5 km/h 9.7 km/h 62.6% 0 mm 151 W/m2
12:00 22.6 °C 15.4 °C 1015.5 hPa Calm   9.7 km/h 64% 0 mm 83 W/m2
12:09 22.3 °C 15.2 °C 1015.5 hPa NE 1.3 km/h 6.4 km/h 63.9% 0 mm 44 W/m2
12:14 22.3 °C 14.9 °C 1015.5 hPa NE 0.3 km/h 6.4 km/h 62.9% 0 mm 104 W/m2
12:19 22.3 °C 14.7 °C 1015.5 hPa NE 0.6 km/h 6.4 km/h 62.2% 0 mm 90 W/m2
12:24 22.2 °C 14.5 °C 1015.1 hPa NE 0.6 km/h 6.4 km/h 61.7% 0 mm 464 W/m2
12:29 22.2 °C 14.6 °C 1015.1 hPa ENE 0.6 km/h 6.4 km/h 61.7% 0 mm 366 W/m2
12:34 22.3 °C 14.3 °C 1015.1 hPa East 0.8 km/h 8 km/h 60.4% 0 mm 239 W/m2
12:39 22.3 °C 13.9 °C 1015.1 hPa Calm   4.8 km/h 59% 0 mm 105 W/m2
12:44 22.4 °C 14.5 °C 1014.8 hPa ENE 1.3 km/h 6.4 km/h 60.9% 0 mm 232 W/m2
12:49 22.4 °C 14.6 °C 1014.8 hPa ENE 1.1 km/h 6.4 km/h 61% 0 mm 232 W/m2
12:54 22.3 °C 13.9 °C 1014.8 hPa ENE 1.6 km/h 6.4 km/h 58.8% 0 mm 42 W/m2
12:59 22.3 °C 14 °C 1014.8 hPa ENE 2.3 km/h 8 km/h 59.2% 0 mm 113 W/m2
13:04 22.3 °C 14.3 °C 1014.8 hPa ENE 0.2 km/h 8 km/h 60.2% 0 mm 297 W/m2
13:09 22.4 °C 14 °C 1014.8 hPa Calm   3.2 km/h 58.9% 0 mm 297 W/m2
13:14 22.4 °C 13.9 °C 1014.8 hPa ENE 0.2 km/h 3.2 km/h 58.6% 0 mm 197 W/m2
13:19 22.5 °C 14.4 °C 1014.4 hPa ENE 1.4 km/h 8 km/h 60% 0 mm 158 W/m2
13:24 22.6 °C 14.3 °C 1014.4 hPa ENE 0.8 km/h 8 km/h 59.4% 0 mm 146 W/m2
13:29 22.6 °C 14.5 °C 1014.4 hPa NW 1.4 km/h 8 km/h 60.2% 0 mm 114 W/m2
13:34 22.7 °C 14.5 °C 1014.1 hPa Calm   8 km/h 59.9% 0 mm 54 W/m2
13:39 22.8 °C 14.6 °C 1014.1 hPa NE 1.1 km/h 6.4 km/h 59.9% 0 mm 72 W/m2
13:44 22.8 °C 14.4 °C 1014.1 hPa NE 1.8 km/h 6.4 km/h 59.3% 0 mm 88 W/m2
13:49 22.8 °C 14.7 °C 1013.8 hPa North 2.6 km/h 8 km/h 60.3% 0 mm 35 W/m2
13:54 22.9 °C 14.5 °C 1013.8 hPa NW 0.5 km/h 8 km/h 59.2% 0 mm 39 W/m2
13:59 22.8 °C 13.9 °C 1013.8 hPa North 1 km/h 8 km/h 57.3% 0 mm 100 W/m2
14:04 22.8 °C 13.9 °C 1013.8 hPa ENE 0.6 km/h 8 km/h 57.1% 0 mm 37 W/m2
14:09 22.8 °C 14.2 °C 1013.8 hPa NNW 2.4 km/h 8 km/h 58.3% 0 mm 39 W/m2
14:14 22.8 °C 14.1 °C 1013.8 hPa NW 1.1 km/h 8 km/h 58.2% 0 mm 33 W/m2
14:19 22.8 °C 14.4 °C 1013.8 hPa NW 0.2 km/h 8 km/h 59% 0 mm 33 W/m2
14:24 22.9 °C 14.4 °C 1013.4 hPa NW 0.6 km/h 8 km/h 58.7% 0 mm 33 W/m2
14:29 22.9 °C 13.5 °C 1013.4 hPa NNW 0.5 km/h 8 km/h 55.3% 0 mm 37 W/m2
14:34 23 °C 13.7 °C 1013.4 hPa North 0.3 km/h 8 km/h 55.8% 0 mm 74 W/m2
14:39 23.1 °C 13.5 °C 1013.4 hPa North 2.1 km/h 4.8 km/h 54.9% 0 mm 158 W/m2
14:44 23.2 °C 13.8 °C 1013.4 hPa Calm   4.8 km/h 55.4% 0 mm 206 W/m2
14:46 23.3 °C 13.8 °C 1013.4 hPa Calm   4.8 km/h 55% 0 mm 209 W/m2
15:00 23.8 °C 13.7 °C 1013.4 hPa Calm   4.8 km/h 53% 0 mm 114 W/m2
15:30 23.9 °C 13.5 °C 1013.1 hPa Calm     52% 0 mm 134 W/m2
16:04 23.7 °C 13.7 °C 1012.4 hPa Calm     53.6% 0 mm 32 W/m2
16:09 23.7 °C 14.2 °C 1012.4 hPa Calm     55.2% 0 mm 32 W/m2
16:14 23.7 °C 14.6 °C 1012.4 hPa Calm     56.7% 0 mm 32 W/m2
16:19 23.7 °C 14.5 °C 1012.8 hPa NNE 0.3 km/h 3.2 km/h 56.3% 0 mm 30 W/m2
16:24 23.7 °C 14.6 °C 1012.4 hPa Calm   3.2 km/h 56.6% 0 mm 28 W/m2
16:29 23.8 °C 14.6 °C 1012.4 hPa NNE 0.5 km/h 3.2 km/h 56.3% 0 mm 28 W/m2
16:34 23.7 °C 14.4 °C 1012.4 hPa NNE 0.5 km/h 6.4 km/h 55.8% 0 mm 26 W/m2
16:39 23.7 °C 14.6 °C 1012.4 hPa NNE 0.8 km/h 6.4 km/h 56.6% 0 mm 28 W/m2
16:44 23.7 °C 14.5 °C 1012.4 hPa Calm   6.4 km/h 56.3% 0 mm 28 W/m2
16:49 23.7 °C 14.7 °C 1012.4 hPa NNE 0.2 km/h 6.4 km/h 56.9% 0 mm 26 W/m2
16:54 23.7 °C 15.1 °C 1012.4 hPa Calm   6.4 km/h 58.5% 0 mm 26 W/m2
16:59 23.7 °C 15.3 °C 1012.4 hPa NNE 1 km/h 6.4 km/h 59.4% 0 mm 26 W/m2
17:04 23.6 °C 15.3 °C 1012.4 hPa NNE 0.3 km/h 6.4 km/h 59.5% 0 mm 25 W/m2
17:09 23.6 °C 15 °C 1012.4 hPa Calm   3.2 km/h 58.7% 0 mm 25 W/m2
17:14 23.4 °C 14.8 °C 1012.4 hPa NNE 0.2 km/h 3.2 km/h 58.2% 0 mm 23 W/m2
17:19 23.4 °C 14.9 °C 1012.4 hPa Calm   3.2 km/h 59% 0 mm 21 W/m2
17:24 23.3 °C 14.8 °C 1012.4 hPa Calm   3.2 km/h 58.6% 0 mm 21 W/m2
17:29 23.2 °C 14.8 °C 1012.1 hPa Calm   3.2 km/h 59% 0 mm 26 W/m2
17:34 23.2 °C 14.7 °C 1012.1 hPa Calm   3.2 km/h 59% 0 mm 28 W/m2
17:39 23.1 °C 14.8 °C 1012.1 hPa NNE 0.3 km/h 3.2 km/h 59.5% 0 mm 28 W/m2
17:44 23.1 °C 15 °C 1012.1 hPa Calm   3.2 km/h 60.6% 0 mm 26 W/m2
17:49 23 °C 15 °C 1012.1 hPa NNE 0.3 km/h 3.2 km/h 60.8% 0 mm 25 W/m2
17:54 22.9 °C 15.2 °C 1012.1 hPa Calm   3.2 km/h 61.7% 0 mm 21 W/m2
17:59 22.8 °C 15 °C 1012.1 hPa Calm   3.2 km/h 61.2% 0 mm 21 W/m2
18:04 22.8 °C 15.3 °C 1011.7 hPa Calm   3.2 km/h 62.7% 0 mm 14 W/m2
18:09 22.7 °C 15.3 °C 1011.7 hPa Calm     63.3% 0 mm 12 W/m2
18:14 22.6 °C 15.4 °C 1011.7 hPa Calm     64% 0 mm 11 W/m2
18:19 22.4 °C 15.3 °C 1011.7 hPa Calm     64% 0 mm 9 W/m2
18:24 22.3 °C 15.2 °C 1011.7 hPa Calm     64.3% 0 mm 7 W/m2
18:29 22.1 °C 15.4 °C 1011.7 hPa Calm     65.7% 0 mm 5 W/m2
18:34 21.9 °C 15.3 °C 1011.7 hPa Calm     66% 0 mm 0 W/m2
18:39 21.7 °C 15.2 °C 1011.7 hPa Calm     66.5% 0 mm 0 W/m2
18:44 21.6 °C 15.2 °C 1011.4 hPa Calm     67% 0 mm 0 W/m2
18:49 21.4 °C 15.2 °C 1011.4 hPa Calm     67.8% 0 mm 0 W/m2
18:54 21.2 °C 15.4 °C 1011.4 hPa Calm     69.4% 0 mm 0 W/m2
18:59 21 °C 15.5 °C 1011.7 hPa Calm     70.9% 0 mm 0 W/m2
19:04 20.8 °C 15.6 °C 1011.7 hPa Calm     72.2% 0 mm 0 W/m2
19:09 20.6 °C 15.6 °C 1011.7 hPa Calm     73% 0 mm 0 W/m2
19:14 20.3 °C 15.3 °C 1011.7 hPa Calm     73% 0 mm 0 W/m2
19:19 20.1 °C 15.2 °C 1011.7 hPa NNE 0.2 km/h 3.2 km/h 73.5% 0 mm 0 W/m2
19:24 19.9 °C 15.2 °C 1011.7 hPa Calm   3.2 km/h 74.1% 0 mm 0 W/m2
19:29 19.8 °C 15.2 °C 1011.7 hPa Calm   3.2 km/h 75% 0 mm 0 W/m2
19:34 19.6 °C 15.2 °C 1011.4 hPa Calm   3.2 km/h 75.7% 0 mm 0 W/m2
19:39 19.4 °C 15.3 °C 1011.4 hPa Calm     77% 0 mm 0 W/m2
19:44 19.2 °C 15.3 °C 1011.4 hPa Calm     77.9% 0 mm 0 W/m2
19:49 19.1 °C 15.2 °C 1011.4 hPa Calm     78% 0 mm 0 W/m2
19:54 18.9 °C 15.1 °C 1011.4 hPa Calm     78.5% 0 mm 0 W/m2
19:59 18.8 °C 15.1 °C 1011.4 hPa Calm     79.3% 0 mm 0 W/m2
20:09 18.6 °C 15.2 °C 1011.4 hPa Calm     80.8% 0 mm 0 W/m2
20:14 18.4 °C 15.1 °C 1011.4 hPa Calm     81% 0 mm 0 W/m2
20:19 18.3 °C 15.1 °C 1011.4 hPa Calm     81.7% 0 mm 0 W/m2
20:24 18.2 °C 15.1 °C 1011.4 hPa Calm     82% 0 mm 0 W/m2
20:29 18.1 °C 15.1 °C 1011.4 hPa Calm     82.5% 0 mm 0 W/m2
20:34 18 °C 15.1 °C 1011.4 hPa Calm     83% 0 mm 0 W/m2
20:39 17.9 °C 15.1 °C 1011.4 hPa Calm     83.3% 0 mm 0 W/m2
20:44 17.8 °C 15.1 °C 1011.4 hPa Calm     84% 0 mm 0 W/m2
20:49 17.7 °C 14.9 °C 1011.4 hPa Calm     84% 0 mm 0 W/m2
20:54 17.6 °C 15.1 °C 1011.4 hPa Calm     85% 0 mm 0 W/m2
20:59 17.5 °C 14.9 °C 1011.4 hPa Calm     85% 0 mm 0 W/m2
21:04 17.4 °C 14.9 °C 1011.4 hPa Calm     85.3% 0 mm 0 W/m2
21:09 17.3 °C 15 °C 1011.4 hPa Calm     86% 0 mm 0 W/m2
21:14 17.3 °C 14.9 °C 1011.4 hPa Calm     86% 0 mm 0 W/m2
21:19 17.3 °C 14.9 °C 1011.4 hPa Calm     86.2% 0 mm 0 W/m2
21:24 17.2 °C 15.1 °C 1011.4 hPa Calm     87% 0 mm 0 W/m2
21:29 17.2 °C 15 °C 1011.4 hPa Calm     87% 0 mm 0 W/m2
21:34 17.2 °C 15.1 °C 1011.1 hPa Calm     87.8% 0 mm 0 W/m2
21:39 17.2 °C 15.2 °C 1011.1 hPa Calm     88% 0 mm 0 W/m2
21:44 17.2 °C 15.2 °C 1011.1 hPa Calm     88% 0 mm 0 W/m2
21:49 17.1 °C 15.1 °C 1011.1 hPa Calm     88% 0 mm 0 W/m2
21:54 17.1 °C 15.2 °C 1011.4 hPa Calm     88.6% 0 mm 0 W/m2
21:59 17.1 °C 15.2 °C 1011.4 hPa Calm     89% 0 mm 0 W/m2
22:04 17.1 °C 15.2 °C 1011.1 hPa Calm     89% 0 mm 0 W/m2
22:09 17.1 °C 15.2 °C 1011.1 hPa Calm     89% 0 mm 0 W/m2
22:14 17.1 °C 15.2 °C 1011.1 hPa Calm     89% 0 mm 0 W/m2
22:19 17 °C 15.2 °C 1011.1 hPa Calm     89% 0 mm 0 W/m2
22:24 17 °C 15.3 °C 1011.1 hPa Calm     89.7% 0 mm 0 W/m2
22:29 17 °C 15.3 °C 1011.1 hPa Calm     90% 0 mm 0 W/m2
22:34 17 °C 15.3 °C 1011.1 hPa Calm     90% 0 mm 0 W/m2
22:39 17 °C 15.3 °C 1010.7 hPa Calm     90% 0 mm 0 W/m2
22:44 17 °C 15.3 °C 1010.7 hPa Calm     90% 0 mm 0 W/m2
22:49 16.9 °C 15.2 °C 1010.7 hPa Calm     89.7% 0 mm 0 W/m2
22:54 16.9 °C 15.1 °C 1010.7 hPa Calm     89% 0 mm 0 W/m2
22:59 16.9 °C 15.1 °C 1010.7 hPa Calm     89% 0 mm 0 W/m2
23:04 16.9 °C 15.1 °C 1010.7 hPa Calm     89% 0 mm 0 W/m2
23:09 16.9 °C 15.1 °C 1010.4 hPa Calm     89% 0 mm 0 W/m2
23:14 16.8 °C 15 °C 1010.7 hPa Calm     89% 0 mm 0 W/m2
23:19 16.8 °C 15 °C 1010.4 hPa Calm     89% 0 mm 0 W/m2
23:24 16.8 °C 14.9 °C 1010.7 hPa Calm     89% 0 mm 0 W/m2
23:28 16.7 °C 14.9 °C 1010.7 hPa Calm     89% 0 mm 0 W/m2
Hartford County Weather
Compliments of Weather Underground - 2 mb